timestamp,wind_dir_avg,wind_spd_avg,wind_spd_max_dir,wind_spd_gust,battery_voltage,lat,long
2021-01-16 00:04:01+00:00,33.0,15.13,36.0,17.73,12.49,47.59359,-54.27349
2021-01-16 00:14:01+00:00,26.0,15.27,28.0,16.99,12.49,47.59359,-54.27349
2021-01-16 00:24:01+00:00,21.0,15.63,24.0,18.68,12.49,47.59359,-54.27349
2021-01-16 00:34:01+00:00,31.0,16.4,34.0,18.53,12.49,47.59359,-54.27349
2021-01-16 00:44:01+00:00,28.0,15.57,27.0,17.26,12.49,47.59359,-54.27349
2021-01-16 00:54:01+00:00,30.0,16.03,29.0,18.37,12.49,47.59359,-54.27349
2021-01-16 01:04:01+00:00,27.0,14.98,26.0,19.76,12.49,47.59359,-54.27349
2021-01-16 01:14:01+00:00,25.0,15.35,25.0,18.98,12.49,47.59359,-54.27349
2021-01-16 01:24:01+00:00,33.0,17.22,38.0,19.97,12.49,47.59359,-54.27349
2021-01-16 01:34:01+00:00,28.0,17.77,31.0,20.18,12.49,47.59359,-54.27349
2021-01-16 01:44:01+00:00,33.0,15.31,36.0,19.85,12.49,47.59359,-54.27349
2021-01-16 01:54:01+00:00,29.0,15.91,27.0,18.37,12.49,47.59359,-54.27349
2021-01-16 02:04:01+00:00,29.0,15.66,29.0,19.2,12.49,47.59359,-54.27349
2021-01-16 02:14:01+00:00,30.0,17.4,35.0,21.64,12.41,47.59359,-54.27349
2021-01-16 02:24:01+00:00,33.0,19.14,37.0,21.78,12.41,47.59359,-54.27349
2021-01-16 02:34:01+00:00,30.0,17.95,44.0,23.27,12.41,47.59359,-54.27349
2021-01-16 02:44:01+00:00,28.0,17.96,24.0,21.65,12.41,47.59359,-54.27349
2021-01-16 02:54:01+00:00,29.0,19.61,30.0,22.58,12.41,47.59359,-54.27349
2021-01-16 03:04:01+00:00,29.0,16.66,25.0,21.3,12.41,47.59359,-54.27349
2021-01-16 03:14:01+00:00,29.0,16.64,34.0,19.98,12.41,47.59359,-54.27349
2021-01-16 03:24:01+00:00,29.0,16.2,20.0,19.01,12.41,47.59359,-54.27349
2021-01-16 03:34:01+00:00,27.0,15.98,27.0,18.72,12.41,47.59359,-54.27349
2021-01-16 03:44:01+00:00,32.0,17.98,34.0,20.71,12.41,47.59359,-54.27349
2021-01-16 03:54:01+00:00,26.0,15.94,29.0,18.98,12.41,47.59359,-54.27349
2021-01-16 04:04:01+00:00,29.0,18.88,24.0,27.0,12.41,47.59359,-54.27349
2021-01-16 04:14:01+00:00,27.0,19.62,30.0,22.81,12.41,47.59359,-54.27349
2021-01-16 04:24:01+00:00,28.0,16.79,21.0,19.69,12.41,47.59359,-54.27349
2021-01-16 04:34:01+00:00,29.0,18.18,32.0,21.53,12.41,47.59359,-54.27349
2021-01-16 04:44:01+00:00,31.0,17.31,36.0,20.57,12.41,47.59359,-54.27349
2021-01-16 04:54:01+00:00,30.0,15.72,34.0,19.0,12.41,47.59359,-54.27349
2021-01-16 05:04:01+00:00,33.0,20.34,35.0,23.65,12.41,47.59359,-54.27349
2021-01-16 05:14:01+00:00,31.0,18.74,35.0,22.65,12.41,47.59359,-54.27349
2021-01-16 05:24:01+00:00,28.0,17.35,30.0,21.5,12.41,47.59359,-54.27349
2021-01-16 05:34:01+00:00,32.0,19.49,32.0,22.81,12.41,47.59359,-54.27349
2021-01-16 05:44:01+00:00,25.0,17.33,26.0,19.44,12.41,47.59359,-54.27349
2021-01-16 05:54:01+00:00,32.0,17.68,33.0,21.1,12.41,47.59359,-54.27349
2021-01-16 06:04:01+00:00,31.0,17.24,37.0,20.84,12.41,47.59359,-54.27349
2021-01-16 06:14:01+00:00,26.0,17.79,31.0,20.76,12.33,47.59359,-54.27349
2021-01-16 06:24:01+00:00,32.0,17.65,35.0,21.93,12.33,47.59359,-54.27349
2021-01-16 06:34:01+00:00,24.0,19.11,35.0,22.62,12.33,47.59359,-54.27349
2021-01-16 06:44:01+00:00,26.0,14.37,34.0,16.83,12.33,47.59359,-54.27349
2021-01-16 06:54:01+00:00,23.0,19.5,31.0,22.39,12.33,47.59359,-54.27349
2021-01-16 07:04:01+00:00,28.0,17.29,30.0,19.38,12.33,47.59359,-54.27349
2021-01-16 07:14:01+00:00,32.0,16.58,36.0,19.17,12.33,47.59359,-54.27349
2021-01-16 07:24:01+00:00,25.0,15.59,28.0,18.33,12.33,47.59359,-54.27349
2021-01-16 07:34:01+00:00,31.0,19.87,35.0,23.06,12.33,47.59359,-54.27349
2021-01-16 07:44:01+00:00,23.0,14.35,27.0,17.29,12.33,47.59359,-54.27349
2021-01-16 07:54:01+00:00,21.0,18.1,22.0,21.18,12.33,47.59359,-54.27349
2021-01-16 08:04:01+00:00,25.0,17.54,28.0,19.99,12.33,47.59359,-54.27349
2021-01-16 08:14:01+00:00,28.0,16.62,26.0,18.52,12.33,47.59359,-54.27349
2021-01-16 08:24:01+00:00,24.0,17.38,29.0,21.67,12.33,47.59359,-54.27349
2021-01-16 08:34:01+00:00,22.0,16.67,30.0,20.54,12.33,47.59359,-54.27349
2021-01-16 08:44:01+00:00,28.0,16.39,32.0,21.04,12.33,47.59359,-54.27349
2021-01-16 08:54:01+00:00,23.0,16.76,25.0,20.34,12.33,47.59359,-54.27349
2021-01-16 09:04:01+00:00,23.0,18.58,30.0,21.61,12.33,47.59359,-54.27349
2021-01-16 09:14:01+00:00,20.0,14.42,31.0,18.49,12.33,47.59359,-54.27349
2021-01-16 09:24:01+00:00,23.0,15.31,28.0,18.04,12.33,47.59359,-54.27349
2021-01-16 09:34:01+00:00,23.0,15.64,25.0,18.3,12.33,47.59359,-54.27349
2021-01-16 09:44:01+00:00,23.0,15.72,19.0,18.72,12.33,47.59359,-54.27349
2021-01-16 09:54:01+00:00,30.0,17.96,32.0,23.69,12.33,47.59359,-54.27349
2021-01-16 10:04:01+00:00,27.0,15.7,28.0,18.19,12.33,47.59359,-54.27349
2021-01-16 10:14:01+00:00,18.0,16.36,18.0,20.38,12.33,47.59359,-54.27349
2021-01-16 10:24:01+00:00,22.0,19.0,28.0,23.93,12.33,47.59359,-54.27349
2021-01-16 10:34:01+00:00,23.0,18.02,21.0,21.31,12.33,47.59359,-54.27349
2021-01-16 10:44:01+00:00,18.0,18.49,20.0,21.66,12.33,47.59359,-54.27349
2021-01-16 10:54:01+00:00,20.0,17.12,23.0,20.06,12.33,47.59359,-54.27349
2021-01-16 11:04:01+00:00,27.0,18.85,32.0,22.2,12.33,47.59359,-54.27349
2021-01-16 11:14:01+00:00,19.0,15.67,30.0,19.48,12.33,47.59359,-54.27349
2021-01-16 11:24:01+00:00,23.0,16.19,25.0,17.95,12.33,47.59359,-54.27349
2021-01-16 11:34:01+00:00,24.0,14.97,22.0,17.87,12.33,47.59359,-54.27349
2021-01-16 11:44:01+00:00,24.0,15.05,29.0,17.7,12.33,47.59359,-54.27349
2021-01-16 11:54:01+00:00,25.0,15.37,26.0,18.56,12.33,47.59359,-54.27349
2021-01-16 12:04:01+00:00,17.0,16.68,14.0,20.51,12.33,47.59359,-54.27349
2021-01-16 12:14:01+00:00,29.0,13.62,34.0,15.61,12.25,47.59359,-54.27349
2021-01-16 12:24:01+00:00,23.0,15.2,19.0,18.1,12.25,47.59359,-54.27349
2021-01-16 12:34:01+00:00,22.0,18.19,20.0,21.16,12.25,47.59359,-54.27349
2021-01-16 12:44:01+00:00,24.0,15.7,29.0,18.74,12.25,47.59359,-54.27349
2021-01-16 12:54:01+00:00,27.0,15.65,32.0,19.52,12.25,47.59359,-54.27349
2021-01-16 13:04:01+00:00,19.0,16.27,30.0,19.43,12.25,47.59359,-54.27349
2021-01-16 13:14:01+00:00,17.0,14.53,13.0,17.45,12.41,47.59359,-54.27349
2021-01-16 13:24:01+00:00,22.0,15.81,24.0,18.36,12.41,47.59359,-54.27349
2021-01-16 13:34:01+00:00,15.0,14.66,19.0,17.47,12.41,47.59359,-54.27349
2021-01-16 13:44:01+00:00,14.0,15.22,18.0,17.56,12.41,47.59359,-54.27349
2021-01-16 13:54:01+00:00,13.0,11.61,13.0,13.84,12.41,47.59359,-54.27349
2021-01-16 14:04:01+00:00,20.0,12.04,16.0,14.65,12.41,47.59359,-54.27349
2021-01-16 14:14:01+00:00,16.0,13.17,19.0,15.41,13.13,47.59359,-54.27349
2021-01-16 14:24:01+00:00,18.0,11.41,8.0,13.22,13.13,47.59359,-54.27349
2021-01-16 14:34:01+00:00,17.0,13.76,23.0,15.87,13.13,47.59359,-54.27349
2021-01-16 14:44:01+00:00,13.0,14.84,19.0,17.12,13.13,47.59359,-54.27349
2021-01-16 14:54:01+00:00,15.0,13.72,14.0,16.83,13.13,47.59359,-54.27349
2021-01-16 15:04:01+00:00,13.0,13.59,14.0,17.06,13.13,47.59359,-54.27349
2021-01-16 15:14:01+00:00,18.0,14.61,13.0,17.57,14.32,47.59359,-54.27349
2021-01-16 15:24:01+00:00,23.0,15.16,28.0,17.22,14.32,47.59359,-54.27349
2021-01-16 15:34:01+00:00,13.0,13.71,15.0,16.03,14.32,47.59359,-54.27349
2021-01-16 15:44:01+00:00,11.0,13.74,10.0,15.71,14.32,47.59359,-54.27349
2021-01-16 15:54:01+00:00,15.0,13.14,13.0,15.38,14.32,47.59359,-54.27349
2021-01-16 16:04:01+00:00,13.0,12.92,20.0,14.82,14.32,47.59359,-54.27349
2021-01-16 16:14:01+00:00,17.0,11.34,15.0,12.63,14.24,47.59359,-54.27349
2021-01-16 16:24:01+00:00,9.0,11.6,14.0,13.81,14.24,47.59359,-54.27349
2021-01-16 16:34:01+00:00,15.0,13.14,15.0,16.09,14.24,47.59359,-54.27349
2021-01-16 16:44:01+00:00,19.0,12.76,22.0,16.27,14.24,47.59359,-54.27349
2021-01-16 16:54:01+00:00,22.0,12.51,24.0,13.86,14.24,47.59359,-54.27349
2021-01-16 17:04:01+00:00,16.0,13.77,14.0,15.96,14.24,47.59359,-54.27349
2021-01-16 17:14:01+00:00,12.0,9.86,7.0,11.86,14.16,47.59359,-54.27349
2021-01-16 17:24:01+00:00,22.0,13.12,17.0,15.95,14.16,47.59359,-54.27349
2021-01-16 17:34:01+00:00,13.0,13.66,13.0,16.04,14.16,47.59359,-54.27349
2021-01-16 17:44:01+00:00,13.0,14.24,14.0,15.43,14.16,47.59359,-54.27349
2021-01-16 17:54:01+00:00,14.0,13.89,13.0,16.06,14.16,47.59359,-54.27349
2021-01-16 18:04:01+00:00,13.0,11.93,2.0,14.48,14.16,47.59359,-54.27349
2021-01-16 18:14:01+00:00,16.0,11.8,11.0,14.18,13.68,47.59359,-54.27349
2021-01-16 18:24:01+00:00,15.0,9.86,18.0,11.91,13.68,47.59359,-54.27349
2021-01-16 18:34:01+00:00,7.0,10.77,2.0,12.61,13.68,47.59359,-54.27349
2021-01-16 18:44:01+00:00,2.0,11.96,0.0,13.36,13.68,47.59359,-54.27349
2021-01-16 18:54:01+00:00,10.0,12.38,17.0,14.22,13.68,47.59359,-54.27349
2021-01-16 19:04:01+00:00,18.0,12.57,17.0,14.77,13.68,47.59359,-54.27349
2021-01-16 19:14:01+00:00,17.0,13.71,14.0,14.99,13.76,47.59359,-54.27349
2021-01-16 19:24:01+00:00,20.0,13.06,26.0,15.24,13.76,47.59359,-54.27349
2021-01-16 19:34:01+00:00,25.0,12.05,29.0,13.57,13.76,47.59359,-54.27349
2021-01-16 19:44:01+00:00,21.0,12.78,17.0,14.96,13.76,47.59359,-54.27349
2021-01-16 19:54:01+00:00,28.0,12.06,36.0,14.04,13.76,47.59359,-54.27349
2021-01-16 20:04:01+00:00,29.0,13.82,32.0,16.25,13.76,47.59359,-54.27349
2021-01-16 20:14:01+00:00,26.0,13.22,32.0,15.16,12.97,47.59359,-54.27349
2021-01-16 20:24:01+00:00,40.0,13.4,45.0,15.3,12.97,47.59359,-54.27349
2021-01-16 20:34:01+00:00,31.0,10.63,31.0,11.97,12.97,47.59359,-54.27349
2021-01-16 20:44:01+00:00,30.0,11.21,35.0,12.77,12.97,47.59359,-54.27349
2021-01-16 20:54:01+00:00,22.0,12.81,18.0,14.67,12.97,47.59359,-54.27349
2021-01-16 21:04:01+00:00,35.0,13.28,38.0,14.82,12.97,47.59359,-54.27349
2021-01-16 21:14:01+00:00,39.0,16.33,44.0,18.58,12.65,47.59359,-54.27349
2021-01-16 21:24:01+00:00,43.0,13.67,48.0,15.75,12.65,47.59359,-54.27349
2021-01-16 21:34:01+00:00,42.0,14.17,39.0,16.21,12.65,47.59359,-54.27349
2021-01-16 21:44:01+00:00,41.0,13.49,44.0,15.39,12.65,47.59359,-54.27349
2021-01-16 21:54:01+00:00,33.0,13.58,29.0,15.65,12.65,47.59359,-54.27349
2021-01-16 22:04:01+00:00,32.0,13.14,30.0,15.59,12.65,47.59359,-54.27349
2021-01-16 22:14:01+00:00,28.0,12.83,35.0,14.31,12.57,47.59359,-54.27349
2021-01-16 22:24:01+00:00,36.0,14.46,35.0,16.11,12.57,47.59359,-54.27349
2021-01-16 22:34:01+00:00,20.0,11.8,20.0,13.21,12.57,47.59359,-54.27349
2021-01-16 22:44:01+00:00,16.0,12.01,19.0,13.59,12.57,47.59359,-54.27349
2021-01-16 22:54:01+00:00,30.0,12.06,26.0,14.29,12.57,47.59359,-54.27349
2021-01-16 23:04:01+00:00,28.0,10.96,29.0,12.25,12.57,47.59359,-54.27349
2021-01-16 23:14:01+00:00,39.0,11.0,44.0,13.06,12.57,47.59359,-54.27349
2021-01-16 23:24:01+00:00,34.0,10.14,30.0,11.04,12.57,47.59359,-54.27349
2021-01-16 23:34:01+00:00,30.0,9.87,31.0,11.1,12.57,47.59359,-54.27349
2021-01-16 23:44:01+00:00,33.0,8.78,31.0,10.7,12.57,47.59359,-54.27349
2021-01-16 23:54:01+00:00,32.0,8.45,34.0,9.48,12.57,47.59359,-54.27349
